Location: Lombray
(49.5154°N, 3.1089°E)
Time: 15:24:48
(UTC+00:00)

Cosmos 2151 - Pass Details

Date: 15 May 2026
Orbit: 556 x 575 km, 82.5° (Epoch: 10 June)

Event Time Altitude Azimuth Distance (km) Brightness Sun altitude
Rises 20:49:30 0° 349° (N) 2,775 7.5 -11.3°
Reaches altitude 10° 20:51:42 10° 349° (N) 1,870 6.5 -11.6°
Maximum altitude 20:55:49 85° 263° (W) 571 2.9 -12.0°
Enters shadow 20:59:16 14° 174° (S) 1,593 4.7 -12.4°
